Home   Weather   New York   Past weeks

Flag for USA Past Weather in New York, New York, USA — Yesterday and Last 2 Weeks

Now
35 °F

Clear.


Feels Like: 30 °F
Forecast: 35 / 48 °F
Wind: 6 mph from Northeast

Location: New York City - Central Park

Current Time: Feb 21, 2017 at 7:09:14 am

Latest Report: Feb 21, 2017 at 5:51 am


Visibility: 10 mi

Pressure: 30.37 "Hg

Humidity: 42%

Dew Point: 14 °F

Location of New YorkLocation

Past Weather in New York — Graph

°F

New York Temperature Yesterday

Maximum temperature yesterday: 54 °F (at 1:51 pm)
Minimum temperature yesterday: 39 °F (at 11:51 pm)
Average temperature yesterday: 47 °F

High & Low Weather Summary for the Past Weeks

 TemperatureHumidityPressure
High65 °F (Feb 19, 2:51 pm)100% (Feb 7, 8:51 pm)30.37 "Hg (Feb 7, 8:51 pm)
Low19 °F (Feb 9, 10:51 pm)17% (Feb 17, 12:51 pm)29.30 "Hg (Feb 15, 3:51 pm)
Average39 °F60%29.84 "Hg
* Reported Feb 6 5:51 am — Feb 21 5:51 am, New York, Weather by CustomWeather, © 2017

Note: Actual official high and low records may vary slightly from our data, if they occured in-between our weather recording intervals... More about our weather records

Advertising

New York Weather History for the Previous 24 Hours

Scroll right to see more
 ConditionsComfort  
Time TempWeatherWind HumidityBarometerVisibility
5:51 am
Tue, Feb 21
35 °FClear.6 mph42%30.37 "Hg10 mi
4:51 am36 °FClear.9 mph35%30.37 "Hg10 mi
3:51 am37 °FClear.10 mph30%30.35 "Hg10 mi
2:51 am37 °FClear.6 mph31%30.35 "Hg10 mi
1:51 am38 °FClear.8 mph30%30.37 "Hg10 mi
12:51 am39 °FClear.7 mph29%30.36 "Hg10 mi
11:51 pm
Mon, Feb 20
39 °FClear.5 mph31%30.36 "Hg10 mi
10:51 pm41 °FClear.9 mph35%30.34 "Hg10 mi
9:51 pm42 °FClear.9 mph33%30.33 "Hg10 mi
8:51 pm43 °FClear.12 mph28%30.32 "Hg10 mi
7:51 pm45 °FClear.9 mph24%30.30 "Hg10 mi
6:51 pm46 °FClear.14 mph25%30.29 "Hg10 mi
5:51 pm49 °FClear.15 mph21%30.25 "Hg10 mi
4:51 pm52 °FSunny.9 mph18%30.21 "Hg10 mi
3:51 pm53 °FSunny.6 mph18%30.18 "Hg10 mi
2:51 pm54 °FSunny.3 mph19%30.16 "Hg10 mi
1:51 pm54 °FSunny.N/A22%30.16 "Hg10 mi
12:51 pm52 °FSunny.8 mph31%30.17 "Hg10 mi
11:51 am51 °FSunny.9 mph36%30.18 "Hg10 mi
10:51 am50 °FSunny.N/A39%30.19 "Hg10 mi
9:51 am47 °FSunny.9 mph52%30.19 "Hg10 mi
8:51 am45 °FSunny.12 mph56%30.17 "Hg10 mi
7:51 am44 °FSunny.3 mph60%30.15 "Hg10 mi
Weather by CustomWeather, © 2017

See weather overviewHow to use our weather pages